ROMMA est une association bénévole à but non lucratif. Votre soutien est indispensable : ADHERER à ROMMA ou FAIRE un DON

Val-d'Arly - (73, Savoie)

Beaufortain (2050 m)   Longitude: 06° 35' 21" E   Latitude: 45° 46' 53" N Station romma n°118
 

Détail journalier du     <<     >>

Température Humidité Vent Dir Rafale Dir. rafale Ensol.
Heure (°C) (%) (km/h) (km/h) (min)
01:00 -2.34224---34---0
02:00 -1.83425---32---0
03:00 -0.72526---42---0
04:00 -0.32927---43---0
05:00 -0.73329---40---0
06:00 -0.63431---45---0
07:00 -1.03732---47---0
08:00 -1.44133---50---0
09:00 -1.84947---89---0
10:00 -1.55152---81---0
11:00 -1.85862---97---0
12:00 -1.86073---121---0
13:00 -2.66976---111---0
14:00 -1.96578---109---0
15:00 -1.76477---119---0
16:00 -1.36181---121---0
17:00 -1.96683---127---0
18:00 -1.86672---134---0
19:00 -1.86878---134---0
20:00 -1.96880---124---0
21:00 -1.76574---118---0
22:00 -1.77262---118---0
23:00 -0.76955---106---0
minuit -1.27249---93---0

Graphique du 14-11-2019

 

Serveur OMMA